Temp
64 63 63 63 63 63 63 63 63 63 63 63 63 63 63 63 63 68 69 81 81 82 82 88 89 88 88 84 75 77 60 57 61 60 62 75 74 77 82 79 84 86 83 80 80
63 63 63 63 63 63 63 63 63 63 63 63 63 63 63 63 64 70 83 83 82 82 86 84 82 87 81 84 79 68 60 65 75 66 62 68 76 79 77 75 80 82 87 82 81
63 63 62 62 63 62 62 62 63 63 62 62 63 63 63 62 63 77 82 82 82 82 86 86 86 85 80 87 77 74 61 73 72 69 67 69 71 82 79 72 78 77 82 79 79
62 62 62 62 62 62 62 62 62 61 62 62 62 63 63 62 65 83 81 81 81 83 86 85 84 78 75 79 85 66 66 78 75 74 72 68 72 74 78 75 86 85 85 85 81
62 62 61 61 62 62 62 62 61 61 61 62 62 63 63 65 74 85 81 81 83 83 83 82 80 80 76 84 79 69 69 73 78 77 75 72 72 72 77 79 81 87 86 83 82
61 61 61 61 61 61 61 61 60 61 61 62 63 63 60 66 93 87 86 84 85 83 83 85 84 87 83 84 78 71 71 72 77 73 72 71 72 76 73 83 82 86 81 81 82
61 61 60 60 61 61 60 60 60 60 61 62 63 68 70 74 93 92 89 83 86 85 83 90 91 83 83 76 81 72 66 69 74 73 70 70 68 68 73 78 77 76 81 82 79
60 60 60 60 60 60 59 59 59 61 62 63 64 66 64 94 90 93 91 88 91 89 87 89 90 84 77 82 82 69 62 60 64 70 68 67 58 68 72 72 72 80 81 79 77
59 59 59 59 59 58 58 58 60 63 65 65 60 61 70 85 84 91 91 90 89 84 86 98 85 75 79 71 66 72 56 57 58 72 65 63 55 66 71 70 69 72 74 75 77
59 58 58 58 58 57 57 58 65 63 66 74 76 67 78 82 86 93 90 93 85 84 83 79 73 67 68 63 55 60 59 62 61 65 66 61 58 64 68 68 67 72 75 73 73
58 58 57 57 57 56 58 70 66 65 72 73 75 79 87 87 88 89 93 88 84 77 66 74 63 60 68 73 74 70 63 61 66 71 65 61 58 62 67 66 66 68 68 73 75
58 58 57 57 56 56 54 69 81 83 72 84 89 87 89 88 81 86 89 78 75 68 73 66 61 75 81 81 77 70 63 60 65 66 68 62 59 63 65 64 67 70 68 69 73
58 58 57 56 56 57 71 80 92 90 70 82 88 87 83 84 82 81 84 81 76 71 72 66 73 84 81 76 74 69 62 60 58 64 67 63 57 61 65 66 69 71 73 71 69
58 58 57 54 61 74 79 90 91 90 62 75 79 85 88 87 77 93 90 82 79 73 75 72 82 82 76 75 75 62 75 69 68 59 52 66 48 58 62 61 64 69 71 70 70
58 57 56 55 58 71 86 93 93 83 49 81 80 94 86 77 81 82 92 84 74 77 70 70 75 74 72 75 80 71 81 77 74 66 62 61 54 58 63 59 62 66 72 72 71
57 56 55 61 59 71 84 88 85 60 54 76 84 80 79 81 82 85 82 82 85 78 73 75 83 76 76 82 81 83 76 72 68 61 50 58 56 54 57 62 65 68 72 71 71
56 55 54 67 72 85 86 80 59 54 79 75 75 80 78 75 79 80 75 71 66 56 59 72 75 77 82 71 76 72 61 48 47 48 45 57 55 60 67 71 72 69 72 75 73
55 54 57 67 78 85 81 66 53 71 74 82 79 78 75 78 75 78 73 68 75 70 63 61 61 73 80 70 64 65 61 50 43 43 48 57 50 61 75 77 77 76 75 77 74
54 68 70 75 73 77 67 56 60 71 82 80 77 70 70 79 74 73 72 70 73 72 59 59 64 80 82 81 75 66 58 63 53 50 50 53 57 69 66 64 69 70 73 74 76
57 69 77 89 87 77 63 56 68 78 82 81 68 74 67 73 71 69 69 76 76 79 71 66 57 73 78 80 78 66 69 56 54 43 41 48 53 50 55 57 63 66 70 74 78
61 68 84 93 90 70 59 64 74 84 85 75 73 71 72 74 74 69 73 76 81 78 75 65 60 65 73 65 66 65 59 58 52 49 44 44 49 59 57 59 60 64 72 75 78
68 63 87 93 67 67 65 72 70 80 85 78 78 75 72 75 70 68 72 74 82 78 66 68 61 54 63 76 80 72 61 63 50 43 47 50 50 67 64 65 66 66 69 75 77
60 68 88 88 63 66 71 75 80 79 81 79 77 78 77 70 63 72 75 81 82 74 62 65 57 50 56 64 71 64 68 61 61 55 48 45 51 64 67 65 64 66 70 71 72
61 61 74 76 77 72 69 71 73 85 83 82 78 78 71 66 69 67 73 80 81 76 72 70 58 53 48 56 64 63 71 70 64 50 49 51 55 62 63 63 63 61 66 69 69
63 65 72 63 69 73 73 72 72 73 82 80 72 76 70 61 67 67 73 73 78 71 71 65 54 56 62 68 70 68 68 69 63 60 54 56 58 58 59 58 61 65 64 67 69
59 63 67 65 69 69 66 69 72 76 78 75 72 78 75 64 66 66 70 68 65 69 67 67 55 58 58 68 69 66 69 70 69 69 65 63 56 59 60 62 61 60 57 64 68
68 69 64 60 66 66 67 71 75 77 79 83 80 75 73 75 79 75 75 72 68 63 63 64 57 54 48 62 63 55 64 67 67 69 66 58 57 59 58 61 60 59 61 68 69
MSLP
1016.67 1016.41 1016.23 1015.98 1015.74 1015.47 1015.15 1014.89 1014.71 1014.51 1014.24 1013.92 1013.71 1013.55 1013.39 1013.06 1012.19 1011.64 1010.57 1008.42 1008.14 1007.94 1008.00 1007.83 1007.58 1006.97 1007.02 1007.88 1009.75 1011.16 1011.96 1012.25 1012.28 1012.46 1011.53 1010.77 1009.68 1009.92 1009.05 1008.81 1008.56 1008.49 1009.25 1011.32 1012.96
1016.67 1016.41 1016.20 1016.00 1015.71 1015.35 1015.01 1014.78 1014.54 1014.33 1014.11 1013.95 1013.73 1013.52 1013.30 1013.01 1012.21 1010.47 1008.03 1007.74 1007.82 1007.84 1007.81 1007.51 1007.04 1006.54 1006.60 1006.83 1008.44 1009.16 1010.69 1010.87 1010.73 1011.94 1012.11 1010.90 1009.91 1009.50 1009.34 1009.32 1008.57 1009.24 1009.81 1011.49 1012.31
1016.73 1016.45 1016.18 1015.93 1015.62 1015.26 1014.91 1014.59 1014.33 1014.16 1014.02 1013.88 1013.73 1013.54 1013.31 1013.03 1011.80 1008.17 1007.10 1007.55 1007.71 1007.80 1007.68 1007.31 1006.90 1006.43 1005.97 1005.64 1007.22 1008.33 1009.49 1009.45 1011.05 1011.40 1011.73 1011.42 1010.44 1009.20 1008.62 1008.78 1008.48 1009.19 1009.78 1011.43 1012.05
1016.79 1016.46 1016.16 1015.86 1015.49 1015.07 1014.72 1014.41 1014.26 1014.11 1013.92 1013.82 1013.65 1013.45 1013.23 1012.87 1010.22 1007.23 1007.11 1007.39 1007.69 1007.65 1007.60 1007.07 1006.46 1006.04 1005.78 1005.60 1006.04 1008.72 1010.43 1009.90 1010.39 1011.07 1011.22 1011.33 1010.81 1010.06 1009.17 1009.44 1008.79 1009.04 1009.54 1010.17 1011.43
1016.78 1016.39 1016.04 1015.71 1015.35 1014.92 1014.49 1014.17 1014.03 1013.90 1013.75 1013.69 1013.59 1013.40 1012.97 1011.65 1008.37 1007.00 1007.16 1007.39 1007.53 1007.51 1007.35 1006.82 1006.19 1005.57 1005.31 1004.91 1006.05 1008.49 1009.07 1010.69 1010.32 1010.55 1011.08 1011.36 1010.94 1010.81 1010.81 1009.94 1009.81 1009.52 1009.70 1010.35 1011.18
1016.77 1016.33 1015.93 1015.51 1015.08 1014.73 1014.31 1013.89 1013.79 1013.64 1013.54 1013.51 1013.47 1013.41 1012.72 1009.63 1006.09 1006.45 1006.84 1007.24 1007.11 1007.16 1006.69 1006.15 1005.51 1004.90 1004.69 1004.99 1006.13 1009.04 1007.65 1009.90 1010.77 1010.88 1011.35 1011.32 1010.83 1010.69 1011.52 1010.20 1010.56 1010.10 1010.44 1010.73 1011.53
1016.76 1016.29 1015.80 1015.35 1014.86 1014.39 1014.02 1013.62 1013.44 1013.36 1013.26 1013.24 1013.28 1013.00 1011.28 1007.90 1005.79 1005.90 1006.28 1006.54 1006.40 1006.46 1006.18 1005.44 1004.92 1004.94 1005.11 1005.44 1006.47 1008.06 1008.98 1011.00 1011.02 1011.42 1011.77 1011.78 1011.47 1011.74 1012.15 1011.31 1011.32 1010.99 1011.02 1011.14 1012.16
1016.65 1016.16 1015.62 1015.21 1014.69 1014.20 1013.69 1013.27 1012.94 1012.92 1012.89 1012.90 1013.06 1012.49 1009.68 1005.93 1005.80 1005.72 1005.73 1005.87 1005.74 1005.52 1005.55 1005.21 1004.82 1004.86 1005.32 1005.32 1006.46 1008.55 1010.35 1011.44 1012.30 1012.19 1012.36 1012.31 1012.28 1011.64 1012.07 1012.20 1012.49 1011.44 1011.36 1011.66 1012.19
1016.50 1016.04 1015.52 1015.09 1014.58 1014.07 1013.41 1012.77 1012.39 1012.30 1012.41 1012.67 1012.80 1011.84 1008.06 1006.00 1005.96 1005.45 1005.22 1005.34 1005.35 1005.52 1005.38 1005.10 1005.34 1005.51 1005.37 1005.87 1006.71 1008.01 1010.64 1011.61 1012.39 1012.14 1012.63 1012.72 1013.17 1012.12 1011.89 1012.37 1012.72 1012.72 1012.17 1012.29 1012.36
1016.45 1015.98 1015.44 1014.88 1014.44 1013.94 1013.01 1012.15 1011.70 1011.84 1011.99 1011.94 1011.23 1010.57 1007.21 1005.75 1005.34 1005.10 1005.06 1005.19 1005.28 1005.43 1005.61 1005.51 1005.72 1005.75 1005.43 1005.94 1006.67 1007.60 1009.47 1010.86 1011.46 1012.26 1012.60 1012.69 1013.16 1012.93 1012.21 1012.63 1013.13 1013.20 1012.95 1012.35 1013.00
1016.47 1015.89 1015.26 1014.62 1014.25 1014.04 1012.88 1011.41 1011.93 1011.34 1010.42 1009.11 1007.86 1006.76 1005.15 1005.11 1005.12 1005.23 1005.04 1005.17 1005.13 1005.38 1005.67 1005.45 1005.98 1005.61 1005.04 1004.93 1005.39 1006.66 1008.63 1010.03 1011.04 1011.58 1012.04 1012.68 1013.13 1012.77 1012.18 1012.82 1012.94 1013.40 1013.84 1013.41 1013.49
1016.48 1015.79 1015.13 1014.32 1013.71 1013.82 1013.89 1011.75 1008.53 1007.66 1007.47 1006.69 1005.80 1005.05 1004.56 1004.57 1004.81 1004.78 1004.85 1005.33 1005.15 1005.36 1005.30 1005.57 1005.19 1004.31 1004.04 1004.39 1004.93 1006.96 1008.43 1009.94 1010.67 1011.38 1011.50 1012.43 1012.92 1012.92 1012.97 1013.02 1013.00 1012.86 1013.49 1013.41 1013.39
1016.35 1015.66 1014.94 1014.05 1013.05 1012.66 1011.54 1009.55 1007.23 1006.56 1006.66 1004.89 1004.37 1004.19 1004.15 1004.29 1004.17 1004.40 1004.77 1004.66 1004.74 1004.91 1004.79 1004.77 1003.88 1003.39 1003.21 1003.24 1004.33 1005.71 1007.73 1008.93 1009.42 1010.37 1011.69 1012.62 1013.13 1013.02 1012.62 1012.54 1012.19 1012.82 1013.11 1013.30 1013.77
1016.19 1015.60 1014.97 1013.92 1012.88 1011.55 1009.50 1007.20 1006.77 1006.54 1006.37 1004.36 1003.68 1003.57 1003.58 1003.63 1003.78 1003.84 1004.07 1004.55 1004.12 1004.02 1003.82 1003.74 1002.51 1002.78 1002.82 1003.11 1003.45 1004.83 1006.06 1007.08 1008.29 1010.53 1010.50 1010.94 1011.99 1012.39 1012.21 1012.21 1012.47 1012.35 1012.57 1012.55 1012.82
1016.09 1015.48 1015.01 1015.19 1013.78 1011.63 1008.41 1007.05 1006.64 1006.46 1005.75 1003.19 1003.02 1002.92 1002.86 1003.41 1003.67 1003.89 1003.79 1003.81 1003.90 1003.68 1003.58 1003.30 1002.77 1002.67 1002.97 1003.10 1003.21 1003.91 1004.36 1005.31 1006.64 1008.17 1008.80 1010.28 1010.78 1010.39 1011.31 1011.60 1011.05 1010.93 1011.22 1011.50 1011.57
1015.77 1015.39 1014.98 1014.01 1013.61 1010.08 1008.82 1007.83 1007.04 1006.84 1004.29 1002.55 1002.63 1002.82 1002.97 1002.96 1003.30 1003.76 1003.84 1004.07 1003.68 1003.66 1003.42 1003.40 1002.74 1002.61 1002.71 1002.69 1002.76 1003.24 1004.08 1005.10 1006.18 1007.72 1009.22 1010.47 1011.01 1010.84 1010.17 1009.33 1009.37 1009.93 1010.59 1010.97 1011.43
1015.17 1014.86 1015.09 1013.76 1011.07 1008.88 1008.72 1007.99 1007.63 1005.98 1002.65 1002.34 1002.26 1002.21 1002.37 1002.76 1003.08 1003.45 1003.79 1004.02 1004.12 1004.03 1003.93 1003.25 1002.83 1002.60 1002.50 1002.73 1002.77 1003.60 1004.95 1006.29 1007.57 1009.00 1010.49 1010.68 1010.82 1009.96 1008.53 1007.76 1008.02 1008.79 1009.47 1010.15 1010.57
1014.34 1013.41 1012.44 1011.46 1010.02 1009.32 1009.19 1009.04 1007.51 1004.68 1002.90 1001.93 1001.97 1002.00 1002.09 1002.27 1002.62 1002.90 1003.29 1003.55 1003.32 1003.61 1003.79 1003.17 1002.69 1002.60 1002.58 1002.93 1003.31 1004.05 1005.04 1006.47 1008.11 1009.79 1010.75 1011.20 1011.36 1009.65 1008.08 1007.69 1007.74 1008.16 1008.89 1009.38 1009.84
1013.59 1011.65 1010.99 1009.06 1009.58 1010.10 1009.95 1008.88 1006.18 1003.99 1002.49 1001.87 1002.04 1002.14 1002.04 1002.21 1002.74 1002.72 1002.73 1002.97 1003.13 1003.44 1004.17 1003.81 1003.17 1002.55 1002.38 1002.50 1003.24 1003.86 1004.78 1005.64 1007.97 1009.82 1011.24 1011.46 1011.20 1009.67 1008.96 1009.70 1009.22 1008.37 1008.78 1008.95 1009.34
1013.95 1011.48 1008.57 1007.33 1008.17 1009.19 1009.51 1008.04 1005.99 1004.30 1003.22 1002.16 1002.37 1002.07 1002.01 1002.22 1002.67 1002.67 1002.55 1002.67 1003.10 1003.51 1003.92 1004.35 1004.29 1003.02 1002.45 1002.60 1002.99 1003.65 1004.70 1006.00 1008.19 1010.93 1012.25 1012.78 1012.36 1012.15 1011.67 1011.54 1010.85 1010.92 1009.22 1008.82 1009.09
1013.66 1010.56 1005.87 1006.05 1007.42 1008.50 1008.33 1007.07 1005.35 1003.65 1002.83 1002.61 1002.60 1002.53 1002.35 1002.21 1002.35 1002.32 1002.57 1003.01 1003.26 1003.89 1004.25 1004.80 1005.06 1004.42 1003.42 1003.16 1003.21 1003.63 1004.69 1006.45 1009.23 1011.16 1012.32 1012.78 1012.31 1011.54 1011.78 1011.94 1012.43 1011.13 1010.00 1009.11 1008.89
1013.31 1010.21 1005.84 1005.85 1007.27 1007.49 1007.32 1006.49 1005.14 1003.56 1002.69 1002.45 1002.63 1002.73 1002.64 1002.57 1002.46 1002.56 1002.68 1003.28 1003.82 1004.40 1005.49 1006.04 1005.95 1005.78 1004.81 1003.66 1003.29 1003.55 1004.50 1005.77 1008.15 1010.99 1011.73 1011.87 1011.17 1010.48 1010.92 1010.84 1011.51 1011.14 1010.44 1009.51 1008.79
1014.28 1010.53 1006.15 1005.55 1006.68 1006.89 1006.45 1005.72 1004.65 1003.37 1002.75 1002.30 1002.70 1002.61 1002.59 1002.87 1003.23 1002.95 1003.33 1003.95 1004.35 1005.21 1006.28 1006.69 1006.95 1006.82 1005.66 1005.00 1004.30 1004.41 1004.75 1005.66 1006.93 1008.88 1010.42 1011.28 1010.72 1010.34 1010.91 1011.36 1011.36 1011.51 1011.05 1009.91 1009.15
1014.87 1010.73 1007.14 1006.10 1006.18 1006.33 1006.09 1005.13 1004.00 1002.75 1002.26 1001.94 1002.27 1002.43 1002.73 1003.15 1003.36 1003.57 1003.61 1004.16 1004.58 1005.44 1006.28 1006.80 1007.53 1007.94 1007.53 1006.65 1005.66 1005.24 1005.05 1005.07 1006.22 1007.93 1009.35 1010.01 1009.90 1010.45 1011.17 1012.14 1011.99 1012.15 1012.24 1011.45 1009.89
1014.65 1011.06 1009.42 1007.82 1007.07 1006.58 1005.78 1004.97 1003.98 1002.83 1001.89 1001.94 1002.40 1002.54 1002.91 1003.50 1003.63 1003.71 1003.91 1004.35 1004.87 1005.77 1006.40 1007.17 1007.85 1007.90 1007.56 1006.84 1006.17 1005.71 1005.43 1005.47 1005.99 1006.59 1007.92 1008.68 1009.83 1010.54 1011.30 1011.44 1011.96 1010.79 1012.80 1013.50 1010.86
1014.42 1012.35 1011.07 1009.59 1008.10 1006.94 1005.43 1004.68 1004.00 1002.90 1002.11 1001.99 1002.28 1002.58 1002.75 1003.26 1003.50 1003.91 1003.94 1004.41 1005.22 1006.14 1006.46 1006.98 1007.88 1008.04 1008.07 1007.45 1006.90 1006.23 1005.57 1005.50 1005.55 1005.96 1006.57 1007.65 1010.05 1011.01 1011.61 1012.09 1012.80 1013.46 1014.91 1013.39 1011.85
1014.12 1012.89 1011.92 1010.15 1008.85 1007.71 1005.86 1004.76 1003.72 1003.02 1002.38 1001.88 1001.66 1002.37 1002.60 1002.69 1003.06 1003.75 1004.03 1004.56 1005.14 1005.84 1006.50 1007.02 1007.91 1008.84 1008.94 1008.32 1007.59 1006.80 1005.81 1005.45 1005.24 1005.74 1006.60 1008.13 1009.40 1010.93 1011.68 1012.45 1013.00 1013.19 1013.33 1012.15 1011.89
Wind_Speed
12 11 11 11 11 11 12 11 11 11 11 13 14 13 13 14 18 3 6 6 6 3 4 6 10 16 15 10 13 4 2 2 7 7 5 8 9 3 7 17 11 9 13 29 25
12 12 12 12 12 12 12 12 12 11 11 12 13 13 13 13 5 8 10 5 3 2 4 8 13 11 8 4 3 5 3 7 5 5 5 13 5 9 9 12 17 18 15 26 20
13 13 13 13 12 12 12 13 12 12 12 12 12 12 12 11 4 3 9 7 4 4 5 9 14 16 11 8 8 7 6 7 12 18 17 8 8 7 4 12 17 20 15 29 22
14 14 13 14 14 14 14 13 12 12 12 12 11 11 11 5 3 4 8 7 4 3 6 8 10 8 7 7 7 12 26 0 15 9 5 6 10 7 12 6 18 18 13 8 12
14 14 14 14 14 15 15 14 14 13 12 11 10 10 6 4 9 5 7 6 5 3 6 12 11 9 9 4 7 12 15 8 10 10 10 9 2 6 12 14 8 15 11 9 5
15 15 14 14 15 15 15 14 13 13 12 9 8 7 3 5 6 12 9 6 7 7 9 13 10 12 10 5 10 8 14 4 6 12 5 3 3 3 12 5 9 11 8 11 4
16 16 15 15 17 17 16 17 15 13 10 8 5 5 5 11 1 8 10 8 9 10 11 11 10 7 10 4 14 16 11 3 9 5 4 4 5 5 9 13 11 11 11 12 7
17 17 17 17 18 18 18 17 16 12 9 6 3 4 8 3 5 4 9 10 9 8 6 10 9 7 4 4 9 8 5 5 6 2 3 2 5 5 6 11 9 12 11 7 7
18 18 18 18 18 17 19 20 16 9 6 4 3 4 8 1 3 10 7 7 8 6 9 10 5 3 8 6 1 4 7 6 3 4 4 3 1 11 4 8 9 12 8 8 2
19 20 19 18 17 17 23 13 3 11 5 8 7 6 7 3 5 6 1 5 4 6 6 5 3 4 5 2 5 7 9 6 6 7 4 5 5 7 9 1 1 7 6 4 9
21 21 21 20 18 15 13 3 1 0 5 10 8 6 6 6 3 4 6 8 6 4 6 8 3 7 14 11 3 12 10 6 7 6 3 9 5 14 11 3 4 2 3 1 9
22 22 23 22 21 14 4 4 7 6 7 14 13 4 3 10 7 7 5 5 5 8 9 3 8 15 14 7 13 14 12 5 4 6 6 6 7 10 7 4 6 6 5 0 4
19 19 21 24 25 4 6 10 13 8 4 12 9 7 4 5 5 8 7 7 8 8 9 9 11 16 14 2 10 16 10 7 8 4 9 8 3 7 7 12 16 14 8 9 7
19 20 20 28 3 7 6 13 7 6 3 7 7 5 6 9 3 10 10 10 7 9 6 7 6 2 7 7 7 7 20 18 15 10 7 18 3 11 12 11 12 11 13 13 11
20 20 19 10 9 5 9 14 9 4 4 14 5 6 3 4 10 5 6 7 9 11 2 8 1 5 4 8 7 5 8 4 8 10 5 17 4 5 10 12 18 19 14 14 12
20 18 20 3 4 11 13 15 6 1 7 6 8 8 9 8 8 5 4 4 8 9 3 8 4 2 6 9 7 7 6 3 2 1 3 5 7 4 10 20 12 15 15 15 13
23 17 9 7 6 9 13 5 3 4 4 8 8 7 9 8 8 9 9 8 5 1 6 9 11 4 4 6 5 4 6 5 6 6 3 8 9 8 18 11 15 15 17 13 13
26 25 9 8 8 7 6 4 5 10 13 6 1 2 8 8 8 8 6 7 10 5 6 5 2 8 6 5 5 5 8 6 4 3 3 6 4 4 10 13 9 13 16 14 13
30 2 4 7 12 4 1 4 6 3 10 4 7 2 6 6 1 2 8 4 4 7 5 6 8 7 10 5 7 8 3 1 6 3 1 2 7 2 19 20 7 9 13 16 15
5 5 9 9 12 4 2 7 9 15 18 7 6 5 1 5 6 6 5 5 4 5 4 6 6 8 2 5 5 4 2 6 5 3 1 8 4 5 10 14 17 14 10 16 16
3 4 7 12 10 3 6 7 13 18 9 1 7 10 9 2 5 1 4 5 4 6 6 4 2 10 6 4 8 2 2 4 8 3 5 3 6 7 8 8 14 16 10 13 14
5 4 2 8 4 4 9 12 15 23 5 1 4 6 8 8 4 1 3 6 8 8 5 7 3 5 9 7 8 7 0 1 5 5 3 3 6 9 10 11 4 11 14 8 7
5 6 8 6 5 7 8 20 21 22 13 7 5 5 6 6 5 6 8 9 8 6 3 5 4 5 10 9 7 3 6 5 7 5 6 5 5 4 5 9 2 14 14 4 3
4 5 5 4 7 11 12 15 19 20 13 3 5 4 2 1 5 4 5 7 9 7 7 4 2 4 5 7 5 5 8 8 2 2 6 6 3 4 6 6 5 8 13 14 3
4 5 10 5 6 11 13 14 17 19 7 6 3 6 3 3 6 6 6 6 8 8 4 4 2 5 7 9 10 9 10 11 8 7 6 4 7 2 5 5 1 7 16 25 4
3 5 9 11 10 13 7 14 16 18 10 9 7 8 6 4 4 5 6 4 7 6 7 4 4 4 5 8 9 10 9 9 10 8 6 7 7 2 4 8 15 13 26 23 7
5 5 4 7 9 9 9 13 13 13 13 14 12 8 7 7 6 7 7 5 5 1 5 3 4 4 4 9 11 7 9 8 6 10 7 3 6 9 6 5 12 22 23 7 6
Wind_Direction
348 346 341 335 330 327 324 322 318 318 318 317 321 323 325 323 309 206 245 228 188 263 302 271 256 235 237 220 144 125 88 208 160 143 239 237 98 167 71 84 153 113 133 128 136
347 344 339 335 330 326 322 317 316 317 317 318 320 322 324 328 278 249 254 213 172 164 258 254 271 255 236 193 129 155 154 192 169 105 47 307 2 184 140 153 115 126 121 122 136
344 341 338 334 331 325 320 317 317 318 317 315 319 320 322 320 283 237 152 221 233 207 259 287 285 283 296 275 188 177 178 179 116 123 129 291 1 311 117 129 150 145 147 139 147
341 338 335 332 327 320 317 316 315 314 312 315 316 317 318 272 45 137 177 203 203 278 263 282 276 272 270 265 41 83 32 54 138 147 160 68 324 3 50 55 138 137 144 151 134
341 337 333 329 324 320 316 313 313 312 309 310 312 317 307 238 246 152 175 186 207 192 244 260 273 267 276 279 88 104 110 310 125 125 98 146 274 9 65 93 292 134 147 147 141
340 336 331 326 323 321 316 311 312 310 307 304 302 309 246 273 101 146 186 159 247 197 250 256 263 287 293 37 74 169 119 250 151 93 57 77 347 15 7 1 197 132 136 99 107
338 334 330 326 326 323 321 316 315 309 303 295 289 269 263 257 38 158 162 193 213 224 248 276 277 317 346 18 135 125 92 243 116 74 69 330 356 83 26 31 151 204 144 155 135
334 331 329 328 326 324 317 313 309 302 292 269 242 270 260 191 352 231 209 217 229 250 267 298 351 354 292 300 128 83 80 128 331 329 315 337 200 288 43 48 0 214 100 105 70
334 332 329 327 324 322 315 308 294 289 267 156 201 234 269 136 226 249 231 243 190 237 279 282 8 264 306 282 137 152 121 114 264 244 145 80 250 269 62 42 17 9 95 91 61
338 335 327 325 326 325 316 283 286 313 206 202 258 304 255 263 186 225 219 313 245 212 244 247 249 243 293 233 197 182 129 118 169 166 168 150 216 264 265 180 334 345 336 146 172
338 334 329 324 324 331 339 18 358 280 248 221 194 225 120 107 112 263 202 227 251 206 221 220 171 236 242 245 146 90 112 135 31 140 121 201 173 217 225 189 217 243 102 155 262
339 335 330 323 318 321 279 249 304 255 305 227 253 213 279 174 170 179 180 235 191 227 230 248 224 244 257 200 122 121 118 113 6 308 186 149 205 232 229 252 269 226 153 95 344
330 328 327 322 314 280 215 255 288 340 285 294 221 154 150 233 203 177 187 230 223 239 240 207 244 233 249 201 148 146 145 203 166 210 239 171 198 215 239 215 213 224 178 154 213
326 324 328 328 328 335 263 240 256 339 303 234 197 160 204 218 131 158 210 227 247 239 223 253 298 86 11 334 351 140 179 184 166 164 205 190 241 217 216 227 239 232 188 178 188
323 322 323 324 307 291 290 323 320 355 293 161 115 153 172 213 143 202 242 317 281 305 2 252 170 136 287 277 254 254 198 187 187 188 167 203 270 243 191 223 219 229 215 180 179
318 319 331 122 211 249 298 291 309 286 240 137 140 193 208 220 159 140 196 235 258 285 195 268 293 351 244 248 271 318 356 315 349 201 354 354 72 259 180 222 221 213 210 172 177
315 308 303 300 240 340 326 320 312 222 273 144 171 176 208 171 148 175 195 226 219 207 256 249 238 186 278 334 354 356 12 334 350 36 243 356 28 278 228 220 206 188 195 190 173
315 310 228 218 242 301 304 329 253 267 273 103 43 125 266 172 160 183 208 222 235 237 279 259 257 152 187 206 250 257 180 170 205 161 260 21 204 329 297 226 203 186 177 177 177
314 181 230 229 216 240 322 244 238 230 334 58 164 205 269 131 290 220 229 206 85 55 24 353 14 169 160 174 161 278 340 173 115 359 76 156 317 95 22 17 19 116 160 189 192
313 274 243 217 161 174 212 247 275 299 295 30 320 234 320 148 183 220 214 46 77 70 25 310 344 295 173 103 285 254 233 29 11 114 339 1 303 282 7 358 341 321 186 190 206
250 274 230 194 158 166 223 240 265 270 263 199 307 315 319 120 242 318 151 101 112 74 37 336 356 297 342 171 225 300 136 88 98 95 160 161 215 154 128 53 283 281 274 203 213
306 287 141 139 160 206 238 251 266 276 248 137 308 303 306 329 334 172 78 87 60 53 20 7 282 304 284 320 8 118 266 17 135 215 239 189 271 172 190 136 205 284 299 254 234
309 277 283 154 215 235 244 246 259 270 259 166 214 223 284 7 4 347 107 121 92 78 91 349 340 349 334 346 21 19 334 315 113 119 179 140 271 189 291 76 30 262 275 345 344
285 292 249 193 230 250 260 253 250 253 253 224 196 270 147 301 296 312 353 128 120 116 125 99 266 210 230 267 319 320 309 302 243 156 162 207 213 174 88 87 19 12 356 311 37
240 267 3 299 276 266 238 268 277 285 207 224 311 257 164 251 275 209 227 133 130 149 128 128 241 289 327 337 329 317 315 310 308 235 150 211 177 133 123 113 148 75 338 301 307
285 346 341 294 301 314 279 237 257 275 284 196 184 252 223 220 251 313 56 56 138 225 178 184 256 291 295 294 312 318 307 279 261 290 219 178 94 68 117 105 89 46 309 284 292
350 329 312 290 306 307 297 309 241 262 283 297 180 202 241 219 216 101 77 43 330 140 210 154 85 46 330 328 328 326 280 328 16 34 28 112 147 153 154 163 154 176 208 230 329